Terminal Aerodrome Forecast
Issued by NWS Greer, SC

Home | Current Version | Previous Version | Text Only | Print | Product List | Glossary On
Versions: 1 2 3 4 5 6 7 8 9 10 11 12 13 14 15 16 17 18 19 20 21 22 23 24 25 26 27 28 29 30 31 32 33 34 35 36 37 38 39 40 41 42 43 44 45 46 47 48 49 50
000
FTUS42 KGSP 240500 RRA
TAFCLT
TAF
KCLT 240542Z 2406/2506 00000KT P6SM FEW015 SCT040 BKN060
     FM241200 29004KT P6SM BKN050
     FM241500 00000KT P6SM VCSH BKN070
      TEMPO 2421/2424 23006KT P6SM -TSRA BKN050CB
     FM250100 23005KT P6SM BKN060=

USA.gov is the U.S. government's official web portal to all federal, state and local government web resources and services.